sat.trackr.live / text

‹ back to catalog

STARLINK-11369 [DTC]

NORAD 62095 · 2024-220H

PAYLOAD ACTIVE UNKNOWN

§ Identity

Operator
Country
US
Launch date
2024-11-25
Launch site
AFETR
Launch vehicle
Mass (kg)
RCS (m²)

Purposes: comms

External: N2YO · Heavens-Above · Gunter

§ Orbital elements

Epoch: 2026-05-24T11:21:51.391008Z

Period
91.67 min
Inclination
42.9994°
Eccentricity
0.0001652
Mean motion
15.70878390 rev/d
Perigee alt
355.3 km
Apogee alt
357.5 km
Semi-major
6,734.5 km
B*
1.1322e-3
RAAN
306.1279°
Arg perigee
274.2078°
Mean anomaly
85.8601°
Rev number
8,697

§ Raw data

STARLINK-11369 [DTC]1 62095U 24220H   26144.47351147  .00147680  00000+0  11322-2 0  99972 62095  42.9994 306.1279 0001652 274.2078  85.8601 15.70878390 86979

JSON: /api/v1/satellites/62095 · /tle

For live sub-satellite position, see the globe view (requires WebGL).

§ Visibility from observer

Set your observer location to see the next 7 days of passes ≥ 10°. The values pass through the URL so the page stays shareable.

No JS? Fill the form by hand. The geolocation button needs JavaScript.